TRA8M LFKB-EHRD

Flight info

Callsign TRA8M
Flight time 1h 45m
Altitude 36000
Route AKUTI UM616 PIGOS DCT BARSO DCT IRMAR DCT KINES DCT VANAS DCT MOBLO DCT UBIMA/N0431F280 DCT GILIR DCT PENDU DCT IXILU DCT EPL DCT ROUSY DCT RITAX M624 BUB Y28 HELEN
Aircraft B738/M-SDE2E3FGHIJ1RWXYZ/LB1

Departure

Time 2026-05-08 19:02
Airport Bastia-Poretta International airport (LFKB)

Arrival

Time 2026-05-08 20:47
Airport Rotterdam The Hague Airport (EHRD)
Time Latitude Longitude Altitude Speed Heading
2026-05-08 18:52 42.54883 9.48152 34 ft 1 kts 253°
2026-05-08 18:53 42.54890 9.48179 34 ft 4 kts 253°
2026-05-08 18:54 42.54896 9.48206 34 ft 4 kts 251°
2026-05-08 18:54 42.54907 9.48236 34 ft 4 kts 211°
2026-05-08 18:54 42.54927 9.48238 33 ft 4 kts 163°
2026-05-08 18:54 42.54939 9.48233 34 ft 1 kts 163°
2026-05-08 18:57 42.54923 9.48240 34 ft 5 kts 163°
2026-05-08 18:58 42.54869 9.48262 33 ft 11 kts 163°
2026-05-08 18:58 42.54776 9.48301 32 ft 16 kts 162°
2026-05-08 18:58 42.54671 9.48345 33 ft 16 kts 162°
2026-05-08 18:58 42.54570 9.48388 34 ft 15 kts 163°
2026-05-08 18:59 42.54472 9.48420 34 ft 14 kts 180°
2026-05-08 18:59 42.54376 9.48426 34 ft 14 kts 165°
2026-05-08 18:59 42.54287 9.48462 34 ft 13 kts 162°
2026-05-08 18:59 42.54203 9.48498 34 ft 13 kts 161°
2026-05-08 19:00 42.54139 9.48575 33 ft 12 kts 117°
2026-05-08 19:00 42.54133 9.48688 34 ft 12 kts 75°
2026-05-08 19:00 42.54179 9.48780 34 ft 11 kts 48°
2026-05-08 19:00 42.54226 9.48808 34 ft 7 kts 349°
2026-05-08 19:01 42.54299 9.48779 34 ft 22 kts 343°
2026-05-08 19:01 42.54671 9.48623 31 ft 90 kts 343°
2026-05-08 19:01 42.55446 9.48298 34 ft 144 kts 343°
2026-05-08 19:01 42.56503 9.47872 335 ft 163 kts 345°
2026-05-08 19:02 42.57628 9.47532 981 ft 167 kts 352°
2026-05-08 19:02 42.58797 9.47375 1464 ft 179 kts 357°
2026-05-08 19:02 42.60124 9.47370 1730 ft 202 kts
2026-05-08 19:02 42.61587 9.47615 1951 ft 221 kts 12°
2026-05-08 19:03 42.63132 9.48234 2141 ft 242 kts 20°
2026-05-08 19:03 42.64758 9.49087 2583 ft 255 kts 21°
2026-05-08 19:03 42.66406 9.49955 3245 ft 258 kts 21°
2026-05-08 19:03 42.68098 9.50833 3930 ft 261 kts 21°
2026-05-08 19:04 42.69820 9.51717 4601 ft 265 kts 21°
2026-05-08 19:04 42.71560 9.52606 5272 ft 269 kts 21°
2026-05-08 19:04 42.73355 9.53392 5945 ft 272 kts 15°
2026-05-08 19:04 42.75197 9.54067 6617 ft 276 kts 14°
2026-05-08 19:05 42.77041 9.54723 7295 ft 278 kts 14°
2026-05-08 19:05 42.78919 9.55396 8026 ft 279 kts 14°
2026-05-08 19:05 42.80805 9.56080 8762 ft 282 kts 14°
2026-05-08 19:05 42.82717 9.56778 9502 ft 284 kts 15°
2026-05-08 19:06 42.84631 9.57482 10269 ft 286 kts 15°
2026-05-08 19:06 42.86611 9.58213 10550 ft 306 kts 15°
2026-05-08 19:06 42.88711 9.58991 10725 ft 328 kts 15°
2026-05-08 19:06 42.90986 9.59834 10911 ft 347 kts 15°
2026-05-08 19:07 42.93361 9.60716 11368 ft 357 kts 15°
2026-05-08 19:07 42.95820 9.61323 11976 ft 361 kts 359°
2026-05-08 19:07 42.98277 9.60650 12667 ft 363 kts 336°
2026-05-08 19:07 43.00399 9.58789 13386 ft 366 kts 317°
2026-05-08 19:08 43.01942 9.56078 14059 ft 369 kts 297°
2026-05-08 19:08 43.03066 9.52913 14750 ft 370 kts 294°
2026-05-08 19:08 43.04134 9.49698 15442 ft 373 kts 294°
2026-05-08 19:08 43.05201 9.46437 16086 ft 377 kts 293°
2026-05-08 19:09 43.06283 9.43143 16771 ft 379 kts 294°
2026-05-08 19:09 43.07361 9.39886 17457 ft 381 kts 294°
2026-05-08 19:09 43.08467 9.36570 18098 ft 385 kts 294°
2026-05-08 19:09 43.09589 9.33222 18682 ft 388 kts 294°
2026-05-08 19:10 43.10724 9.29844 19253 ft 390 kts 294°
2026-05-08 19:10 43.11847 9.26501 19824 ft 392 kts 294°
2026-05-08 19:10 43.12994 9.23085 20389 ft 394 kts 294°
2026-05-08 19:10 43.14142 9.19663 20937 ft 397 kts 293°
2026-05-08 19:11 43.15295 9.16218 21465 ft 399 kts 293°
2026-05-08 19:11 43.16458 9.12743 21993 ft 402 kts 293°
2026-05-08 19:11 43.17626 9.09245 22497 ft 404 kts 293°
2026-05-08 19:11 43.18786 9.05769 22969 ft 407 kts 293°
2026-05-08 19:12 43.19967 9.02223 23427 ft 410 kts 293°
2026-05-08 19:12 43.21156 8.98652 23857 ft 413 kts 293°
2026-05-08 19:12 43.22354 8.95046 24264 ft 415 kts 293°
2026-05-08 19:12 43.23476 8.91389 24665 ft 416 kts 289°
2026-05-08 19:13 43.24463 8.87651 25054 ft 418 kts 288°
2026-05-08 19:13 43.25400 8.83906 25430 ft 420 kts 287°
2026-05-08 19:13 43.26349 8.80098 25811 ft 422 kts 287°
2026-05-08 19:13 43.27311 8.76284 26171 ft 424 kts 288°
2026-05-08 19:14 43.28290 8.72456 26527 ft 426 kts 288°
2026-05-08 19:14 43.29283 8.68603 26871 ft 429 kts 288°
2026-05-08 19:14 43.30284 8.64725 27181 ft 431 kts 288°
2026-05-08 19:14 43.31276 8.60874 27501 ft 434 kts 288°
2026-05-08 19:15 43.32284 8.56951 27790 ft 437 kts 288°
2026-05-08 19:15 43.33295 8.52998 28127 ft 438 kts 287°
2026-05-08 19:15 43.34309 8.49030 28457 ft 440 kts 287°
2026-05-08 19:15 43.35327 8.45036 28775 ft 442 kts 287°
2026-05-08 19:16 43.36332 8.41086 29065 ft 444 kts 287°
2026-05-08 19:16 43.37352 8.37073 29357 ft 446 kts 287°
2026-05-08 19:16 43.38374 8.33043 29763 ft 445 kts 287°
2026-05-08 19:16 43.39389 8.29037 30223 ft 442 kts 287°
2026-05-08 19:17 43.40401 8.25041 30609 ft 441 kts 287°
2026-05-08 19:17 43.41408 8.21052 30935 ft 440 kts 287°
2026-05-08 19:17 43.42411 8.17071 31239 ft 441 kts 287°
2026-05-08 19:17 43.43412 8.13090 31561 ft 440 kts 287°
2026-05-08 19:18 43.44399 8.09162 31912 ft 439 kts 287°
2026-05-08 19:18 43.45393 8.05198 32241 ft 438 kts 287°
2026-05-08 19:18 43.46386 8.01227 32547 ft 438 kts 287°
2026-05-08 19:18 43.47376 7.97267 32865 ft 437 kts 287°
2026-05-08 19:19 43.48363 7.93311 33157 ft 437 kts 287°
2026-05-08 19:19 43.49349 7.89348 33366 ft 439 kts 287°
2026-05-08 19:19 43.50342 7.85350 33658 ft 439 kts 287°
2026-05-08 19:19 43.51330 7.81371 34010 ft 437 kts 287°
2026-05-08 19:20 43.52310 7.77416 34286 ft 436 kts 287°
2026-05-08 19:20 43.54256 7.69541 34838 ft 434 kts 287°
2026-05-08 19:20 43.55225 7.65607 35124 ft 433 kts 287°
2026-05-08 19:21 43.56192 7.61677 35402 ft 431 kts 286°
2026-05-08 19:21 43.57153 7.57763 35662 ft 431 kts 286°
2026-05-08 19:21 43.58113 7.53848 35859 ft 431 kts 286°
2026-05-08 19:21 43.59072 7.49930 36111 ft 430 kts 286°
2026-05-08 19:22 43.60014 7.46077 36465 ft 427 kts 286°
2026-05-08 19:22 43.60991 7.42209 36753 ft 426 kts 290°
2026-05-08 19:22 43.62433 7.38602 36920 ft 432 kts 302°
2026-05-08 19:22 43.64384 7.35395 37116 ft 437 kts 312°
2026-05-08 19:23 43.66717 7.32749 37321 ft 442 kts 322°
2026-05-08 19:23 43.69281 7.30409 37572 ft 441 kts 322°
2026-05-08 19:23 43.71874 7.28103 37775 ft 442 kts 323°
2026-05-08 19:23 43.74459 7.25805 37967 ft 442 kts 322°
2026-05-08 19:24 43.77040 7.23490 38044 ft 443 kts 322°
2026-05-08 19:24 43.82201 7.18793 38050 ft 442 kts 322°
2026-05-08 19:25 43.87282 7.14123 38051 ft 438 kts 322°
2026-05-08 19:25 43.92354 7.09444 38058 ft 435 kts 322°
2026-05-08 19:26 43.97363 7.04814 38060 ft 434 kts 321°
2026-05-08 19:26 44.02388 7.00162 38073 ft 433 kts 321°
2026-05-08 19:27 44.07404 6.95508 38064 ft 433 kts 321°
2026-05-08 19:27 44.12453 6.90986 38065 ft 438 kts 329°
2026-05-08 19:28 44.18291 6.88273 38091 ft 450 kts 347°
2026-05-08 19:28 44.24577 6.87292 38092 ft 456 kts 350°
2026-05-08 19:29 44.30884 6.86453 38094 ft 457 kts 349°
2026-05-08 19:29 44.37240 6.85541 38088 ft 459 kts 349°
2026-05-08 19:30 44.43571 6.84585 38085 ft 460 kts 349°
2026-05-08 19:30 44.49936 6.83611 38081 ft 460 kts 349°
2026-05-08 19:31 44.56325 6.82634 38079 ft 460 kts 349°
2026-05-08 19:31 44.62656 6.81666 38070 ft 459 kts 349°
2026-05-08 19:32 44.68979 6.80696 38074 ft 455 kts 349°
2026-05-08 19:32 44.75273 6.79729 38084 ft 453 kts 349°
2026-05-08 19:33 44.81538 6.78818 38084 ft 453 kts 351°
2026-05-08 19:33 44.87767 6.78376 38089 ft 444 kts 353°
2026-05-08 19:33 44.90828 6.78224 38065 ft 432 kts 353°
2026-05-08 19:34 44.93813 6.78068 38070 ft 425 kts 353°
2026-05-08 19:34 44.98714 6.77782 38097 ft 423 kts 352°
2026-05-08 19:35 45.05565 6.77329 38100 ft 424 kts 352°
2026-05-08 19:35 45.10517 6.76997 38090 ft 426 kts 353°
2026-05-08 19:36 45.16417 6.76606 38085 ft 428 kts 353°
2026-05-08 19:36 45.22375 6.76211 38096 ft 429 kts 353°
2026-05-08 19:37 45.28353 6.75816 38075 ft 430 kts 353°
2026-05-08 19:37 45.34335 6.75420 38082 ft 429 kts 353°
2026-05-08 19:38 45.40307 6.75042 38100 ft 429 kts 353°
2026-05-08 19:38 45.46236 6.74666 38088 ft 429 kts 352°
2026-05-08 19:39 45.52185 6.74268 38102 ft 427 kts 352°
2026-05-08 19:39 45.58137 6.73860 38102 ft 427 kts 352°
2026-05-08 19:40 45.64078 6.73455 38096 ft 426 kts 352°
2026-05-08 19:40 45.69972 6.73054 38056 ft 424 kts 352°
2026-05-08 19:41 45.75849 6.72654 38085 ft 422 kts 352°
2026-05-08 19:41 45.81714 6.72252 38078 ft 421 kts 352°
2026-05-08 19:42 45.87519 6.71851 38077 ft 419 kts 352°
2026-05-08 19:42 45.93332 6.71446 38067 ft 417 kts 352°
2026-05-08 19:43 45.99117 6.71042 38097 ft 415 kts 352°
2026-05-08 19:43 46.04900 6.70638 38068 ft 415 kts 352°
2026-05-08 19:44 46.10659 6.70234 38079 ft 413 kts 351°
2026-05-08 19:44 46.16146 6.68545 38073 ft 403 kts 336°
2026-05-08 19:45 46.21446 6.65912 38052 ft 402 kts 336°
2026-05-08 19:45 46.26733 6.63274 38060 ft 402 kts 336°
2026-05-08 19:46 46.32029 6.60665 38041 ft 404 kts 337°
2026-05-08 19:46 46.40034 6.56747 38061 ft 409 kts 337°
2026-05-08 19:47 46.45494 6.54071 38054 ft 417 kts 337°
2026-05-08 19:47 46.51044 6.51347 38051 ft 424 kts 337°
2026-05-08 19:48 46.56667 6.48581 38052 ft 431 kts 337°
2026-05-08 19:48 46.62390 6.45760 38044 ft 436 kts 337°
2026-05-08 19:49 46.68171 6.42904 38041 ft 440 kts 337°
2026-05-08 19:49 46.73950 6.40044 38045 ft 442 kts 337°
2026-05-08 19:50 46.79779 6.37152 38046 ft 439 kts 337°
2026-05-08 19:50 46.85517 6.34301 38043 ft 431 kts 337°
2026-05-08 19:51 46.91150 6.31490 38049 ft 430 kts 337°
2026-05-08 19:51 46.96812 6.28658 38040 ft 429 kts 337°
2026-05-08 19:52 47.02477 6.25820 38045 ft 429 kts 337°
2026-05-08 19:52 47.08049 6.22816 38034 ft 427 kts 332°
2026-05-08 19:53 47.13384 6.18959 38040 ft 428 kts 329°
2026-05-08 19:53 47.18690 6.15028 38021 ft 430 kts 330°
2026-05-08 19:54 47.24075 6.11123 38029 ft 432 kts 330°
2026-05-08 19:54 47.29499 6.07211 38024 ft 434 kts 330°
2026-05-08 19:55 47.35127 6.04025 38025 ft 441 kts 343°
2026-05-08 19:55 47.41278 6.03237 38031 ft 448 kts 356°
2026-05-08 19:56 47.47538 6.03465 38030 ft 449 kts 357°
2026-05-08 19:56 47.53742 6.03674 38018 ft 449 kts 357°
2026-05-08 19:57 47.59992 6.03816 38026 ft 448 kts 356°
2026-05-08 19:57 47.66238 6.03941 38050 ft 448 kts 356°
2026-05-08 19:58 47.72489 6.04068 38037 ft 448 kts 356°
2026-05-08 19:58 47.78689 6.04227 38038 ft 448 kts 357°
2026-05-08 19:59 47.84938 6.04429 38026 ft 447 kts 357°
2026-05-08 19:59 47.91163 6.04629 38035 ft 447 kts 357°
2026-05-08 20:00 47.97390 6.04824 38041 ft 447 kts 357°
2026-05-08 20:00 48.03576 6.05017 38042 ft 447 kts 357°
2026-05-08 20:01 48.09805 6.05210 38064 ft 447 kts 357°
2026-05-08 20:01 48.16042 6.05405 38048 ft 447 kts 357°
2026-05-08 20:02 48.22236 6.05599 38057 ft 447 kts 357°
2026-05-08 20:02 48.28462 6.05795 38078 ft 447 kts 357°
2026-05-08 20:03 48.34659 6.06009 38054 ft 447 kts 358°
2026-05-08 20:03 48.40911 6.06308 38049 ft 447 kts 358°
2026-05-08 20:04 48.47104 6.06618 38050 ft 447 kts 358°
2026-05-08 20:04 48.53333 6.06922 38080 ft 447 kts 358°
2026-05-08 20:05 48.59570 6.07220 38072 ft 447 kts 358°
2026-05-08 20:05 48.65762 6.07516 38076 ft 447 kts 358°
2026-05-08 20:06 48.71995 6.07815 38072 ft 447 kts 358°
2026-05-08 20:06 48.78220 6.08114 38077 ft 447 kts 358°
2026-05-08 20:07 48.84443 6.08414 38070 ft 447 kts 358°
2026-05-08 20:07 48.90611 6.08712 38076 ft 447 kts 358°
2026-05-08 20:08 48.96846 6.09013 38080 ft 447 kts 359°
2026-05-08 20:08 49.03032 6.09314 38076 ft 447 kts 359°
2026-05-08 20:09 49.09246 6.09616 38074 ft 447 kts 359°
2026-05-08 20:09 49.15482 6.09920 38088 ft 447 kts 359°
2026-05-08 20:10 49.21705 6.10225 38081 ft 447 kts 359°
2026-05-08 20:10 49.27902 6.10528 38080 ft 448 kts 359°
2026-05-08 20:11 49.34144 6.10835 38087 ft 448 kts 359°
2026-05-08 20:11 49.40355 6.11142 38100 ft 448 kts 359°
2026-05-08 20:12 49.46567 6.11271 38090 ft 446 kts 352°
2026-05-08 20:12 49.52572 6.09192 38114 ft 441 kts 339°
2026-05-08 20:13 49.58396 6.06141 38105 ft 441 kts 339°
2026-05-08 20:13 49.64228 6.03094 38104 ft 442 kts 339°
2026-05-08 20:14 49.70049 6.00107 38102 ft 443 kts 340°
2026-05-08 20:14 49.75920 5.97110 38102 ft 444 kts 340°
2026-05-08 20:15 49.81759 5.94125 38109 ft 444 kts 340°
2026-05-08 20:15 49.87642 5.91106 38105 ft 445 kts 340°
2026-05-08 20:16 49.93485 5.88100 38118 ft 444 kts 340°
2026-05-08 20:16 49.99367 5.85065 38108 ft 444 kts 340°
2026-05-08 20:17 50.05208 5.81943 38116 ft 442 kts 334°
2026-05-08 20:17 50.10403 5.76946 38112 ft 438 kts 317°
2026-05-08 20:18 50.14765 5.70428 38118 ft 437 kts 314°
2026-05-08 20:18 50.19087 5.63766 38115 ft 436 kts 315°
2026-05-08 20:19 50.23426 5.57131 38116 ft 436 kts 315°
2026-05-08 20:19 50.27797 5.50482 37590 ft 442 kts 315°
2026-05-08 20:20 50.29990 5.47147 37066 ft 438 kts 316°
2026-05-08 20:20 50.32171 5.43825 36513 ft 435 kts 316°
2026-05-08 20:20 50.34308 5.40566 35908 ft 434 kts 316°
2026-05-08 20:20 50.36471 5.37258 35259 ft 433 kts 317°
2026-05-08 20:21 50.38630 5.33957 34618 ft 432 kts 317°
2026-05-08 20:21 50.40783 5.30661 33943 ft 431 kts 317°
2026-05-08 20:21 50.42919 5.27387 33208 ft 430 kts 317°
2026-05-08 20:21 50.45042 5.24129 32741 ft 423 kts 317°
2026-05-08 20:22 50.46432 5.21992 32380 ft 421 kts 317°
2026-05-08 20:22 50.48513 5.18789 31927 ft 415 kts 317°
2026-05-08 20:22 50.50570 5.15619 31436 ft 411 kts 318°
2026-05-08 20:22 50.52602 5.12484 30966 ft 407 kts 318°
2026-05-08 20:23 50.54615 5.09374 30498 ft 403 kts 319°
2026-05-08 20:23 50.56606 5.06292 30051 ft 398 kts 319°
2026-05-08 20:23 50.58546 5.03290 29562 ft 393 kts 319°
2026-05-08 20:23 50.60496 5.00267 29106 ft 396 kts 318°
2026-05-08 20:24 50.62477 4.97196 28617 ft 400 kts 318°
2026-05-08 20:24 50.64446 4.94136 28141 ft 395 kts 318°
2026-05-08 20:24 50.66390 4.91108 27665 ft 391 kts 317°
2026-05-08 20:24 50.68320 4.88109 27158 ft 389 kts 317°
2026-05-08 20:25 50.70246 4.85117 26671 ft 386 kts 317°
2026-05-08 20:25 50.72151 4.82155 26211 ft 384 kts 317°
2026-05-08 20:25 50.74044 4.79209 25764 ft 389 kts 317°
2026-05-08 20:25 50.75983 4.76184 25295 ft 390 kts 316°
2026-05-08 20:26 50.77905 4.73172 24831 ft 387 kts 316°
2026-05-08 20:26 50.79808 4.70184 24362 ft 384 kts 316°
2026-05-08 20:26 50.81697 4.67211 23922 ft 382 kts 316°
2026-05-08 20:26 50.83578 4.64251 23427 ft 380 kts 315°
2026-05-08 20:27 50.85447 4.61307 22921 ft 378 kts 315°
2026-05-08 20:27 50.87285 4.58408 22452 ft 375 kts 315°
2026-05-08 20:27 50.89148 4.55466 21992 ft 372 kts 315°
2026-05-08 20:27 50.90811 4.52409 21544 ft 371 kts 304°
2026-05-08 20:28 50.92192 4.48945 21120 ft 369 kts 301°
2026-05-08 20:28 50.93517 4.45465 20661 ft 367 kts 301°
2026-05-08 20:28 50.94833 4.41994 20238 ft 366 kts 301°
2026-05-08 20:28 50.96135 4.38574 19815 ft 366 kts 301°
2026-05-08 20:29 50.97452 4.35137 19374 ft 364 kts 301°
2026-05-08 20:29 50.98772 4.31704 18942 ft 361 kts 301°
2026-05-08 20:29 51.00076 4.28320 18516 ft 359 kts 301°
2026-05-08 20:29 51.01376 4.24949 18038 ft 357 kts 301°
2026-05-08 20:30 51.02668 4.21590 17571 ft 354 kts 301°
2026-05-08 20:30 51.03949 4.18256 17130 ft 351 kts 300°
2026-05-08 20:30 51.05216 4.14955 16693 ft 348 kts 300°
2026-05-08 20:30 51.06476 4.11671 16283 ft 346 kts 300°
2026-05-08 20:31 51.07724 4.08412 15870 ft 345 kts 300°
2026-05-08 20:31 51.08992 4.05212 15460 ft 347 kts 305°
2026-05-08 20:31 51.10588 4.02323 15044 ft 348 kts 316°
2026-05-08 20:31 51.12482 3.99928 14631 ft 346 kts 323°
2026-05-08 20:32 51.14431 3.97679 14210 ft 344 kts 323°
2026-05-08 20:32 51.16368 3.95447 13786 ft 343 kts 323°
2026-05-08 20:32 51.18285 3.93201 13328 ft 341 kts 323°
2026-05-08 20:32 51.20185 3.90952 12898 ft 339 kts 322°
2026-05-08 20:33 51.22070 3.88717 12479 ft 336 kts 324°
2026-05-08 20:33 51.24171 3.87145 12068 ft 335 kts 347°
2026-05-08 20:33 51.26437 3.86763 11734 ft 331 kts 358°
2026-05-08 20:33 51.28737 3.86729 11335 ft 329 kts 359°
2026-05-08 20:34 51.31028 3.86741 10943 ft 327 kts 359°
2026-05-08 20:34 51.33294 3.86732 10678 ft 321 kts 359°
2026-05-08 20:34 51.37600 3.86649 10400 ft 302 kts 358°
2026-05-08 20:35 51.39672 3.86598 10272 ft 293 kts 358°
2026-05-08 20:35 51.41667 3.86913 10124 ft 286 kts 18°
2026-05-08 20:35 51.43390 3.88348 9915 ft 282 kts 33°
2026-05-08 20:35 51.44990 3.90164 9619 ft 280 kts 35°
2026-05-08 20:36 51.46553 3.92013 9322 ft 278 kts 36°
2026-05-08 20:36 51.48107 3.93858 9036 ft 276 kts 36°
2026-05-08 20:36 51.49653 3.95685 8758 ft 274 kts 36°
2026-05-08 20:36 51.51188 3.97491 8479 ft 273 kts 35°
2026-05-08 20:37 51.52722 3.99288 8201 ft 271 kts 35°
2026-05-08 20:37 51.54221 4.01040 7929 ft 269 kts 35°
2026-05-08 20:37 51.55735 4.02809 7654 ft 268 kts 35°
2026-05-08 20:37 51.57240 4.04565 7376 ft 267 kts 35°
2026-05-08 20:38 51.58738 4.06313 7100 ft 265 kts 35°
2026-05-08 20:38 51.60231 4.08056 6830 ft 265 kts 35°
2026-05-08 20:38 51.61722 4.09798 6550 ft 264 kts 36°
2026-05-08 20:38 51.63208 4.11534 6269 ft 263 kts 36°
2026-05-08 20:39 51.64696 4.13276 5895 ft 265 kts 36°
2026-05-08 20:39 51.66165 4.14995 5612 ft 264 kts 36°
2026-05-08 20:39 51.67647 4.16731 5328 ft 263 kts 37°
2026-05-08 20:39 51.69123 4.18461 5058 ft 261 kts 37°
2026-05-08 20:40 51.70565 4.20152 4946 ft 252 kts 37°
2026-05-08 20:40 51.71964 4.21794 4830 ft 244 kts 37°
2026-05-08 20:40 51.73363 4.23261 4704 ft 237 kts 22°
2026-05-08 20:40 51.75005 4.23648 4260 ft 246 kts 355°
2026-05-08 20:41 51.76681 4.23255 4047 ft 242 kts 353°
2026-05-08 20:41 51.78306 4.22872 3947 ft 234 kts 353°
2026-05-08 20:41 51.79924 4.22500 3849 ft 231 kts 353°
2026-05-08 20:41 51.81480 4.22146 3680 ft 224 kts 353°
2026-05-08 20:42 51.82996 4.21802 3459 ft 216 kts 354°
2026-05-08 20:42 51.84451 4.21474 3233 ft 207 kts 353°
2026-05-08 20:42 51.85859 4.21266 2984 ft 198 kts
2026-05-08 20:42 51.86988 4.22254 2814 ft 182 kts 56°
2026-05-08 20:43 51.87635 4.24027 2738 ft 185 kts 57°
2026-05-08 20:43 51.88370 4.25729 2508 ft 181 kts 56°
2026-05-08 20:43 51.89042 4.27358 2289 ft 168 kts 58°
2026-05-08 20:43 51.89655 4.28889 2057 ft 157 kts 58°
2026-05-08 20:44 51.90244 4.30371 1857 ft 155 kts 58°
2026-05-08 20:44 51.90797 4.31760 1672 ft 145 kts 58°
2026-05-08 20:44 51.91336 4.33116 1463 ft 141 kts 58°
2026-05-08 20:44 51.91869 4.34451 1273 ft 141 kts 58°
2026-05-08 20:45 51.92401 4.35788 1081 ft 141 kts 58°
2026-05-08 20:45 51.92762 4.36692 944 ft 141 kts 57°
2026-05-08 20:45 51.93469 4.38465 692 ft 143 kts 57°
2026-05-08 20:45 51.94009 4.39822 539 ft 144 kts 58°
2026-05-08 20:46 51.94559 4.41201 330 ft 146 kts 56°
2026-05-08 20:46 51.95110 4.42581 100 ft 145 kts 57°
2026-05-08 20:46 51.95649 4.43929 -6 ft 130 kts 57°
2026-05-08 20:46 51.96026 4.44867 -6 ft 68 kts 57°
2026-05-08 20:47 51.96162 4.45230 -6 ft 11 kts 80°
2026-05-08 20:47 51.96135 4.45336 -6 ft 10 kts 126°
2026-05-08 20:47 51.96082 4.45403 -6 ft 10 kts 169°
2026-05-08 20:47 51.96024 4.45352 -6 ft 10 kts 233°
2026-05-08 20:48 51.95982 4.45250 -6 ft 12 kts 237°
2026-05-08 20:48 51.95931 4.45120 -6 ft 15 kts 237°
2026-05-08 20:48 51.95868 4.44964 -6 ft 18 kts 237°
2026-05-08 20:48 51.95797 4.44785 -6 ft 20 kts 237°
2026-05-08 20:49 51.95721 4.44597 -6 ft 20 kts 237°
2026-05-08 20:49 51.95647 4.44412 -6 ft 19 kts 237°
2026-05-08 20:49 51.95575 4.44233 -6 ft 19 kts 237°
2026-05-08 20:49 51.95506 4.44062 -6 ft 18 kts 237°
2026-05-08 20:50 51.95441 4.43894 -6 ft 17 kts 238°
2026-05-08 20:50 51.95375 4.43737 -6 ft 17 kts 237°
2026-05-08 20:50 51.95315 4.43584 -6 ft 16 kts 237°
2026-05-08 20:50 51.95255 4.43511 -6 ft 10 kts 175°
2026-05-08 20:51 51.95192 4.43564 -7 ft 10 kts 147°
2026-05-08 20:51 51.95136 4.43621 -7 ft 8 kts 156°
2026-05-08 20:51 51.95095 4.43587 -7 ft 7 kts 234°
2026-05-08 20:51 51.95085 4.43525 -7 ft 6 kts 292°
2026-05-08 20:52 51.95109 4.43489 -7 ft 2 kts 326°
2026-05-08 20:52 51.95112 4.43485 -7 ft 0 kts 326°